This demonstration page uses our WeatherBlox Daily Observations layout. Learn more.

41.55636, -103.73856

Hourly Observations for January 23, 2020

Temp ( °F °C ) Dew Point ( °F °C ) Humidity (%) Winds ( mph kmh ) Pressure ( in mb ) Visibility ( mi km ) Precip ( " mm )
12:58 am 00:58 Mostly Cloudy 33 0.7 27 -3 77 77 NW 12 19 30.1 1019 10 16.0934 0 0
1:58 am 01:58 Mostly Cloudy 30 -0.9 25 -3.7 82 82 WNW 14 22 30.15 1021 10 16.0934 0 0
2:58 am 02:58 Clear 28 -2.2 24 -4.3 86 86 W 9 15 30.2 1023 10 16.0934 0 0
3:58 am 03:58 Clear 26 -3.6 23 -5.2 89 89 W 7 11 30.23 1024 10 16.0934 0 0
4:58 am 04:58 Mostly Cloudy 29 -1.8 23 -4.9 80 80 W 5 7 30.21 1023 10 16.0934 0 0
5:58 am 05:58 Mostly Cloudy 28 -2 21 -6 74 74 W 9 15 30.22 1024 10 16.0934 0 0
6:58 am 06:58 Partly Cloudy 28 -2.5 20 -6.4 75 75 WNW 12 19 30.1 1019 10 16.0934 0 0
7:58 am 07:58 Mostly Cloudy 26 -3.3 19 -7.1 75 75 NW 12 19 30.1 1019 10 16.0934 0 0
8:58 am 08:58 Clear 23 -4.9 19 -7.4 83 83 WNW 10 17 30.13 1020 10 16.0934 0 0
9:58 am 09:58 Clear 24 -4.5 18 -7.9 77 77 WNW 10 17 30.14 1021 10 16.0934 0 0
10:58 am 10:58 Clear 24 -4.4 17 -8.2 75 75 WNW 10 17 30.15 1021 10 16.0934 0 0
11:58 am 11:58 Clear 24 -4.2 16 -8.9 70 70 WNW 9 15 30.19 1022 10 16.0934 0 0
12:58 pm 12:58 Clear 24 -4.4 15 -9.4 68 68 W 12 19 30.21 1023 10 16.0934 0 0
1:58 pm 13:58 Clear 21 -5.9 14 -10 73 73 W 10 17 30.23 1024 10 16.0934 0 0
2:56 pm 14:56 Sunny 24 -4.6 15 -9.3 70 70 W 12 19 30.26 1025 10 16.0934 0 0
3:56 pm 15:56 Sunny 29 -1.7 17 -8.6 60 60 WNW 13 20 30.25 1025 10 16.0934 0 0
4:58 pm 16:58 Sunny 34 1.1 18 -7.6 53 53 NW 14 22 30.23 1024 10 16.0934 0 0
5:58 pm 17:58 Sunny 38 3.3 14 -9.8 38 38 NNW 22 35 30.19 1023 10 16.0934 0 0
6:58 pm 18:58 Sunny 40 4.5 13 -10.7 33 33 NNW 25 41 30.17 1022 10 16.0934 0 0
7:58 pm 19:58 Sunny 40 4.6 12 -10.9 32 32 NNW 21 33 30.15 1021 10 16.0934 0 0
8:58 pm 20:58 Sunny 41 4.9 12 -11.3 30 30 NNW 18 30 30.14 1021 10 16.0934 0 0
9:58 pm 21:58 Mostly Sunny 41 5.2 10 -12.2 27 27 NNW 22 35 30.14 1021 10 16.0934 0 0
10:58 pm 22:58 Mostly Sunny 40 4.2 11 -11.8 30 30 N 21 33 30.15 1021 10 16.0934 0 0
11:58 pm 23:58 Sunny 35 1.6 14 -10.1 42 42 NNW 12 19 30.19 1022 10 16.0934 0 0

Powered by AerisWeather